sat.trackr.live / text

‹ back to catalog

IRIDIUM 105

NORAD 41921 · 2017-003E

PAYLOAD ACTIVE UNKNOWN

§ Identity

Operator
Country
US
Launch date
2017-01-14
Launch site
AFWTR
Launch vehicle
Mass (kg)
RCS (m²)
2.25

Purposes: comms

External: N2YO · Heavens-Above · Gunter

§ Orbital elements

Epoch: 2026-09-19T16:36:21.236544Z

Period
100.40 min
Inclination
86.4015°
Eccentricity
0.0002354
Mean motion
14.34217771 rev/d
Perigee alt
776.0 km
Apogee alt
779.4 km
Semi-major
7,155.8 km
B*
3.1066e-6
RAAN
17.3510°
Arg perigee
97.4895°
Mean anomaly
262.6569°
Rev number
50,868

§ Raw data

IRIDIUM 1051 41921U 17003E   26262.69191246  .00000028  00000+0  31066-5 0  99942 41921  86.4015  17.3510 0002354  97.4895 262.6569 14.34217771508686

JSON: /api/v1/satellites/41921 · /tle

For live sub-satellite position, see the globe view (requires WebGL).

§ Visibility from observer

Set your observer location to see the next 7 days of passes ≥ 10°. The values pass through the URL so the page stays shareable.

No JS? Fill the form by hand. The geolocation button needs JavaScript.